Wind_Speed
10 9 8 6 3 4 5 4 3 4 6 8 9 9 9 10 11 11 10 10 12 12 14 14 14 12 11 9 8 8 8 9 7 10 7 7 13 14 16 15 12 7 6
10 14 13 7 0 3 4 5 6 5 7 8 9 10 10 11 11 10 8 9 10 13 15 15 12 10 10 9 10 10 10 8 8 8 6 9 11 10 9 8 6 5 6
10 12 21 21 8 7 6 7 6 6 7 9 9 10 10 10 11 10 9 9 9 11 16 15 13 11 9 9 10 10 10 8 6 5 6 10 6 5 4 5 5 6 8
1 3 10 17 3 4 6 6 6 7 8 10 10 10 11 12 12 10 9 11 13 16 19 19 15 12 11 10 10 10 9 8 6 6 5 5 3 3 3 4 6 7 9
0 7 10 13 16 15 12 8 6 6 9 10 11 11 11 10 11 11 10 8 6 17 22 21 17 16 14 12 11 9 9 8 7 7 7 5 3 3 3 4 7 8 10
11 16 18 15 12 14 10 12 10 8 7 10 11 11 12 11 10 8 8 8 7 7 24 26 26 19 17 15 12 10 11 10 10 10 9 6 4 2 3 5 7 9 10
11 24 22 15 7 8 11 9 9 9 9 8 12 13 13 13 9 7 8 11 12 9 18 29 24 21 18 15 13 13 9 8 11 10 7 5 3 1 3 6 8 9 10
11 19 26 19 15 8 7 10 10 10 10 10 10 12 12 11 10 6 8 10 6 3 16 30 24 19 18 16 15 12 9 8 10 8 6 6 3 1 4 7 9 10 10
18 19 22 25 23 11 5 7 10 11 12 11 11 10 11 11 8 10 8 11 3 2 19 16 22 17 17 16 14 13 10 7 8 7 5 4 2 1 5 9 10 11 11
12 16 20 23 25 14 15 10 12 12 12 13 12 10 11 11 12 11 9 10 9 2 14 16 17 17 17 15 13 11 8 7 6 5 4 3 2 1 7 10 12 12 11
13 13 15 19 17 19 21 15 10 13 14 14 13 12 12 11 11 10 10 11 10 3 15 14 16 17 17 15 15 11 8 6 5 3 4 3 2 2 8 11 12 13 11
16 16 16 19 22 25 26 22 17 16 13 15 15 13 13 12 12 12 13 17 14 4 11 18 17 18 17 16 15 12 9 7 5 5 5 4 2 5 9 11 12 12 11
17 19 19 20 21 20 22 24 21 21 17 14 15 14 14 13 13 14 15 15 14 7 8 25 20 20 19 17 17 15 10 7 5 6 6 5 4 7 10 10 12 12 11
17 20 23 23 23 22 20 21 23 23 21 17 15 14 14 15 15 15 16 13 13 9 6 12 29 21 21 20 21 19 14 10 6 6 7 6 6 7 10 11 12 12 11
16 18 22 25 25 26 23 20 20 19 20 18 18 17 14 15 16 17 15 15 14 17 5 9 30 27 23 24 25 22 17 13 9 7 8 6 6 7 10 11 12 12 11
20 17 19 24 25 29 30 25 22 21 14 18 17 19 17 15 14 19 15 14 14 14 8 5 21 33 23 25 26 23 18 16 11 9 7 6 6 7 11 12 13 13 13
26 25 19 19 24 27 33 33 29 24 20 17 18 19 20 19 17 16 17 17 15 14 9 4 15 40 28 27 26 24 20 17 14 10 9 7 7 7 11 12 14 14 14
34 35 30 25 20 21 30 32 34 36 30 24 18 19 19 18 16 20 17 19 15 16 8 6 20 25 32 26 26 24 21 19 15 12 11 10 8 8 10 13 14 15 15
28 33 37 37 31 21 18 23 27 35 38 28 26 21 23 23 16 16 16 12 15 14 12 9 16 32 33 26 25 24 24 21 18 15 13 13 10 9 10 14 15 17 16
30 28 28 33 39 33 24 18 19 26 25 29 29 25 25 23 20 16 14 12 10 16 16 11 13 19 21 30 27 28 25 23 21 18 17 15 13 11 10 14 17 18 18
30 27 27 26 32 41 33 26 23 24 30 26 28 29 30 30 25 24 17 14 16 5 11 11 11 16 9 29 33 29 28 25 25 22 20 16 14 13 12 12 17 19 20
28 24 21 23 26 33 40 32 26 26 25 31 26 28 32 32 29 25 20 17 16 15 13 17 10 13 11 19 32 37 29 28 25 24 23 18 16 14 13 12 16 19 20
30 24 21 21 23 27 32 34 31 27 27 30 31 28 29 34 32 29 25 22 20 16 13 13 15 15 15 16 21 34 28 30 24 24 22 19 15 17 15 15 14 17 20
33 28 23 23 21 24 26 28 32 31 27 25 27 28 28 30 33 32 30 26 22 20 17 14 11 16 14 13 21 33 31 29 30 28 24 21 16 16 17 15 15 15 18
35 34 29 23 21 20 23 21 24 30 29 29 26 27 28 31 31 33 32 33 28 24 21 18 14 13 14 7 9 13 28 24 26 35 32 29 29 22 17 16 17 18 17
34 35 34 28 19 18 21 21 18 24 30 32 31 28 27 30 31 32 33 32 31 28 25 22 18 15 14 13 10 16 11 14 16 23 30 36 26 29 23 20 23 22 22
Wind_Direction
179 167 135 138 149 202 210 209 208 199 178 177 165 164 164 163 167 165 163 160 164 167 166 160 153 154 153 155 153 146 139 145 130 90 81 109 111 126 131 139 153 143 115
203 209 162 178 353 244 231 204 189 186 176 169 167 159 163 163 170 162 164 176 182 176 175 169 159 152 153 153 150 150 144 127 103 92 112 122 136 145 150 159 158 142 117
182 206 207 233 194 209 204 213 193 183 173 169 164 163 162 161 166 169 173 184 198 199 193 185 170 167 162 155 151 147 139 125 104 115 140 134 140 153 159 142 136 124 113
69 132 145 162 260 202 215 218 198 183 173 171 167 168 171 170 170 171 174 189 195 206 202 196 189 173 171 162 158 157 152 131 145 151 143 136 130 127 132 134 127 120 109
128 178 159 172 192 204 199 200 194 194 182 176 172 171 178 175 166 167 167 167 185 222 198 204 192 173 172 168 167 160 152 150 165 154 137 144 157 152 140 137 128 121 113
160 176 171 186 191 190 193 186 183 192 195 185 185 182 180 175 168 171 187 161 180 187 196 204 186 172 170 173 162 158 160 160 164 161 150 159 163 161 147 140 135 124 119
194 181 176 216 196 198 191 190 202 192 184 203 199 194 189 185 177 177 190 200 197 215 179 195 185 171 168 168 169 176 168 152 157 154 148 155 153 137 176 153 141 130 128
215 214 208 220 234 217 193 215 211 225 210 193 211 212 214 212 189 177 184 190 195 281 177 149 152 164 167 168 177 176 170 144 155 151 157 148 118 22 178 159 147 138 133
214 213 217 222 233 242 281 240 241 217 227 210 204 212 219 223 208 204 193 220 244 288 217 136 155 164 168 179 187 185 168 149 148 142 148 134 83 107 179 161 149 142 137
252 247 237 224 221 238 279 243 255 241 234 234 209 207 220 218 210 215 202 198 182 340 202 151 161 172 181 189 197 188 166 167 151 142 147 110 66 157 166 160 153 144 142
249 252 245 225 227 207 205 211 271 252 242 241 236 214 215 212 214 210 211 204 182 190 187 170 175 179 187 197 207 194 177 178 177 175 168 123 72 167 162 162 154 147 143
232 238 232 222 218 212 221 252 259 265 241 235 235 222 211 208 212 209 208 202 202 208 204 193 195 186 193 203 219 213 193 191 187 201 171 140 162 157 162 162 158 147 146
234 232 232 219 224 225 226 221 224 246 253 235 236 227 214 204 210 217 213 211 209 211 205 207 203 201 195 205 223 227 218 197 173 191 192 170 169 160 165 167 163 152 149
243 237 234 226 225 229 227 229 228 226 238 232 240 238 224 210 208 211 219 212 202 202 205 221 201 206 198 202 220 225 221 218 208 196 196 180 166 172 171 172 168 160 154
246 247 240 244 233 225 217 210 209 220 227 228 235 239 237 226 219 208 212 210 216 219 262 237 212 208 204 203 217 224 223 224 225 211 201 183 176 181 179 177 178 169 162
272 260 252 246 245 232 222 217 216 211 222 227 227 238 242 238 243 214 204 218 222 201 263 225 213 199 205 206 217 222 225 232 223 209 203 194 189 192 188 182 189 179 174
293 277 280 257 252 246 232 231 235 222 222 231 230 234 242 239 232 238 211 204 211 197 217 269 208 196 207 209 218 223 226 233 233 203 216 214 199 202 198 189 196 189 186
306 288 282 277 261 248 248 238 239 231 235 240 232 230 234 235 230 242 222 199 211 221 223 241 203 202 205 207 218 225 228 231 235 214 219 229 213 208 206 198 201 200 194
327 310 290 278 269 260 240 236 236 238 242 240 230 236 233 237 238 243 249 217 201 207 212 236 233 216 202 206 221 224 230 226 230 225 217 227 229 217 210 204 205 204 204
328 329 313 290 270 261 252 239 230 231 229 237 229 221 229 228 232 234 234 219 252 216 210 192 213 196 230 220 214 218 226 224 225 225 217 224 228 228 218 211 208 207 210
325 324 324 302 276 263 255 245 233 235 232 225 226 217 222 226 224 228 222 224 240 223 207 185 259 206 320 226 221 213 222 227 229 230 224 219 228 230 229 222 214 213 212
329 327 327 309 287 268 258 252 241 228 227 225 224 219 216 223 225 223 221 216 207 201 199 200 215 236 269 218 212 210 212 223 223 231 232 229 227 229 236 232 224 218 217
328 327 322 321 297 277 266 252 247 233 223 226 224 219 215 222 223 222 220 216 209 205 196 197 219 221 240 272 232 212 224 216 229 235 233 224 230 227 228 236 233 225 223
326 327 327 328 311 290 281 267 247 240 229 225 221 222 219 220 224 222 218 218 213 207 204 213 194 211 218 239 291 231 229 229 228 229 240 243 244 235 231 231 242 238 231
322 325 329 327 317 300 297 297 262 241 233 225 222 222 221 221 222 225 221 219 215 214 209 204 214 200 208 213 231 237 226 246 247 247 247 253 246 242 224 238 238 238 242
317 319 323 328 322 306 299 302 293 251 235 229 224 225 221 223 221 223 225 223 219 215 213 211 219 213 205 201 240 238 246 260 275 254 251 245 249 240 235 241 246 248 243
Height
3159 3159 3161 3162 3162 3163 3163 3162 3163 3162 3162 3162 3161 3162 3162 3162 3163 3164 3166 3167 3167 3168 3167 3168 3169 3169 3169 3170 3170 3170 3171 3173 3173 3172 3174 3175 3175 3176 3176 3177 3177 3177 3178
3158 3158 3161 3164 3162 3164 3163 3162 3161 3161 3161 3161 3161 3161 3163 3162 3165 3164 3166 3167 3168 3168 3168 3168 3169 3170 3169 3170 3170 3171 3172 3173 3173 3174 3176 3176 3176 3177 3178 3178 3178 3178 3179
3159 3159 3160 3160 3163 3163 3161 3162 3162 3160 3161 3161 3162 3161 3163 3165 3164 3164 3165 3167 3168 3168 3168 3168 3168 3170 3170 3170 3171 3172 3172 3173 3174 3176 3177 3178 3178 3178 3179 3179 3180 3180 3180
3155 3154 3152 3156 3160 3159 3161 3161 3161 3160 3161 3161 3161 3162 3162 3163 3163 3164 3164 3165 3166 3166 3168 3168 3169 3169 3170 3171 3172 3172 3173 3173 3176 3178 3178 3179 3179 3180 3180 3180 3181 3181 3182
3154 3154 3153 3153 3155 3160 3160 3160 3162 3161 3161 3160 3159 3161 3163 3164 3163 3163 3164 3164 3164 3163 3164 3167 3168 3168 3169 3171 3172 3173 3174 3175 3178 3178 3179 3180 3180 3181 3182 3182 3182 3183 3183
3153 3155 3155 3155 3156 3156 3159 3158 3159 3159 3160 3158 3158 3160 3162 3164 3162 3163 3163 3162 3162 3161 3162 3163 3166 3168 3169 3171 3173 3174 3176 3176 3178 3178 3179 3180 3181 3182 3183 3183 3184 3184 3185
3153 3154 3153 3155 3153 3153 3156 3158 3158 3157 3156 3157 3158 3159 3160 3162 3162 3162 3163 3163 3162 3161 3159 3161 3164 3167 3169 3172 3173 3175 3176 3176 3177 3179 3179 3181 3182 3183 3184 3184 3184 3185 3186
3152 3152 3151 3151 3155 3153 3154 3157 3156 3157 3156 3155 3156 3158 3160 3160 3161 3162 3162 3163 3163 3161 3157 3158 3164 3166 3170 3172 3173 3176 3177 3177 3178 3179 3180 3181 3182 3183 3184 3185 3185 3187 3188
3149 3148 3148 3149 3151 3152 3155 3156 3156 3155 3156 3155 3155 3156 3158 3159 3160 3160 3162 3162 3163 3161 3159 3161 3164 3166 3169 3172 3173 3176 3176 3177 3178 3179 3181 3181 3182 3182 3185 3186 3186 3188 3189
3143 3143 3143 3144 3147 3147 3149 3154 3155 3155 3154 3155 3153 3154 3156 3157 3158 3159 3161 3161 3162 3161 3158 3161 3164 3166 3169 3171 3172 3174 3175 3177 3178 3180 3181 3181 3182 3183 3184 3186 3187 3189 3190
3139 3139 3139 3139 3142 3143 3145 3149 3151 3153 3153 3153 3153 3151 3153 3154 3156 3157 3159 3161 3162 3161 3161 3162 3166 3168 3169 3170 3171 3173 3175 3177 3178 3180 3181 3181 3182 3184 3185 3186 3188 3189 3191
3136 3136 3137 3137 3139 3140 3142 3144 3149 3149 3150 3151 3151 3150 3150 3152 3153 3155 3156 3159 3159 3160 3159 3162 3166 3167 3169 3170 3170 3171 3175 3176 3178 3180 3181 3182 3183 3184 3185 3187 3188 3190 3192
3133 3133 3133 3134 3135 3137 3137 3140 3142 3146 3147 3147 3148 3148 3147 3148 3150 3152 3153 3154 3157 3158 3159 3160 3163 3167 3168 3169 3168 3170 3173 3175 3178 3180 3181 3182 3183 3184 3185 3188 3189 3190 3192
3130 3129 3130 3130 3131 3132 3134 3136 3138 3141 3143 3143 3144 3145 3145 3145 3146 3149 3150 3151 3154 3156 3156 3156 3161 3165 3167 3169 3166 3169 3172 3174 3177 3180 3182 3182 3183 3184 3185 3188 3190 3191 3193
3126 3126 3126 3125 3127 3127 3130 3131 3132 3135 3137 3138 3139 3142 3142 3136 3143 3145 3147 3149 3151 3153 3153 3154 3156 3162 3165 3167 3165 3168 3171 3174 3177 3180 3181 3182 3182 3183 3185 3188 3190 3192 3193
3122 3122 3121 3120 3120 3122 3123 3125 3127 3129 3131 3133 3135 3137 3138 3138 3135 3139 3142 3145 3148 3149 3151 3151 3150 3158 3162 3164 3164 3167 3170 3173 3175 3178 3180 3181 3182 3183 3185 3187 3190 3192 3193
3119 3117 3118 3116 3114 3114 3116 3118 3120 3122 3126 3129 3130 3133 3134 3135 3136 3134 3137 3141 3144 3145 3146 3146 3147 3154 3158 3160 3162 3165 3169 3172 3175 3177 3179 3180 3181 3182 3184 3186 3189 3192 3193
3114 3114 3112 3112 3111 3110 3110 3111 3113 3117 3120 3124 3126 3127 3130 3132 3132 3131 3130 3135 3138 3142 3143 3141 3142 3148 3154 3157 3159 3163 3166 3170 3173 3175 3177 3179 3180 3181 3183 3185 3188 3191 3193
3107 3107 3106 3105 3104 3106 3106 3105 3106 3110 3113 3118 3120 3123 3125 3128 3129 3130 3126 3128 3132 3135 3140 3141 3139 3141 3148 3153 3156 3160 3164 3167 3170 3173 3174 3177 3179 3180 3182 3184 3187 3189 3192
3100 3100 3100 3098 3096 3099 3101 3101 3100 3103 3106 3110 3114 3116 3120 3123 3125 3126 3127 3125 3130 3132 3136 3139 3139 3141 3147 3150 3152 3157 3160 3164 3166 3169 3172 3175 3176 3179 3180 3182 3184 3187 3190
3094 3093 3093 3090 3088 3087 3093 3095 3096 3096 3098 3103 3106 3110 3114 3118 3120 3123 3124 3125 3128 3129 3133 3137 3138 3133 3143 3144 3148 3151 3156 3159 3163 3166 3169 3172 3174 3176 3178 3180 3182 3184 3188
3088 3087 3087 3084 3081 3078 3081 3088 3089 3092 3093 3096 3100 3103 3106 3110 3114 3117 3120 3122 3124 3127 3130 3132 3135 3138 3139 3140 3143 3146 3150 3155 3158 3162 3166 3170 3172 3174 3176 3178 3180 3182 3185
3084 3083 3081 3077 3075 3072 3071 3076 3081 3084 3086 3090 3094 3097 3100 3104 3107 3111 3115 3118 3120 3124 3126 3128 3131 3132 3134 3136 3138 3142 3146 3150 3154 3158 3162 3166 3169 3172 3173 3176 3177 3179 3181
3080 3079 3076 3073 3069 3067 3065 3065 3070 3075 3079 3083 3087 3090 3093 3098 3100 3104 3109 3114 3116 3119 3122 3124 3126 3129 3132 3133 3135 3138 3143 3148 3150 3154 3157 3161 3164 3168 3171 3173 3174 3176 3177
3079 3075 3073 3069 3065 3063 3061 3060 3061 3066 3071 3076 3079 3083 3086 3090 3095 3097 3102 3107 3112 3115 3118 3120 3123 3126 3130 3131 3133 3134 3140 3143 3145 3148 3151 3154 3158 3163 3166 3169 3171 3172 3174
3077 3073 3069 3065 3062 3059 3057 3056 3056 3057 3062 3067 3071 3075 3078 3083 3088 3092 3095 3100 3105 3109 3113 3116 3119 3122 3124 3127 3130 3133 3135 3137 3140 3141 3145 3148 3152 3155 3158 3162 3165 3167 3169